Weather History for Pueblo, CO

Change the Weather History Date:

Sunday, September 7, 2014

  Actual Average Record
Temperature  
Mean Temperature 69 °F 68 °F  
Max Temperature 89 °F 85 °F 100 °F (2002)
Min Temperature 49 °F 52 °F 38 °F (1898)
Degree Days  
Heating Degree Days 0 1  
Month to date heating degree days 6 7  
Since 1 July heating degree days 7 12  
Cooling Degree Days 4 4  
Month to date cooling degree days 40 36  
Year to date cooling degree days 915 847  
Growing Degree Days 18 (Base 50)    
Moisture  
Dew Point 48 °F    
Average Humidity 51    
Maximum Humidity 83    
Minimum Humidity 18    
Precipitation  
Precipitation T in 0.03 in 0.76 in (1969)
Month to date precipitation T 0.25  
Year to date precipitation 9.60 10.48  
Snow  
Snow 0.00 in 0.00 in 0.00 in (2002)
Month to date snowfall 0.0 0.0  
Since 1 July snowfall T 0.0  
Since 1 September snowfall 0.0 0.0  
Snow Depth 0.00 in    
Sea Level Pressure  
Sea Level Pressure 30.00 in    
Wind  
Wind Speed 5 mph (NW)    
Max Wind Speed 37 mph    
Max Gust Speed 48 mph    
Visibility 10 miles    
Events Rain    
T = Trace of Precipitation, MM = Missing Value Source: NWS Daily Summary

Daily Weather History Graph

Daily Weather History Graph

Search for Another Location

Airport:

Trip Planner

Search our weather history database for the weather conditions in past years. The results will help you decide how hot, cold, wet, or windy it might be!

Date:

Astronomy

Sep. 07, 2014 Rise Set
Actual Time 6:32 AM MDT 7:18 PM MDT
Civil Twilight 6:05 AM MDT 7:45 PM MDT
Nautical Twilight 5:34 AM MDT 8:16 PM MDT
Astronomical Twilight 5:01 AM MDT 8:49 PM MDT
Moon 6:19 PM MDT (9/7) 4:49 AM MDT (9/7)
Length of Visible Light 13h 39m
Length of Day
12h 45m
Waxing Gibbous, 97% of the Moon is Illuminated
Sep 7
Waxing Gibbous
Sep 8
Full
Sep 15
Last Quarter
Sep 24
New
Oct 1
First Quarter

Hourly Weather History & Observations

Time (MDT) Temp. Dew Point Humidity Pressure Visibility Wind Dir Wind Speed Gust Speed Precip Events Conditions
12:53 AM 60.1 °F 48.9 °F 67% 30.12 in 10.0 mi ENE 5.8 mph - N/A   Clear
1:53 AM 57.0 °F 48.9 °F 74% 30.10 in 10.0 mi NNE 5.8 mph - N/A   Clear
2:53 AM 55.0 °F 48.0 °F 77% 30.10 in 10.0 mi Calm Calm - N/A   Clear
3:53 AM 54.0 °F 48.0 °F 80% 30.09 in 10.0 mi Calm Calm - N/A   Clear
4:53 AM 53.1 °F 46.9 °F 80% 30.08 in 10.0 mi Calm Calm - N/A   Clear
5:53 AM 50.0 °F 45.0 °F 83% 30.09 in 10.0 mi Calm Calm - N/A   Clear
6:53 AM 51.1 °F 45.0 °F 80% 30.08 in 10.0 mi Calm Calm - N/A   Clear
7:53 AM 55.9 °F 50.0 °F 80% 30.08 in 10.0 mi WSW 3.5 mph - N/A   Clear
8:53 AM 61.0 °F 51.1 °F 70% 30.05 in 10.0 mi Calm Calm - N/A   Clear
9:53 AM 66.0 °F 51.1 °F 59% 30.04 in 10.0 mi Variable 3.5 mph - N/A   Clear
10:53 AM 71.1 °F 52.0 °F 51% 30.01 in 10.0 mi SSW 5.8 mph - N/A   Clear
11:53 AM 75.9 °F 51.1 °F 42% 29.98 in 10.0 mi Variable 3.5 mph - N/A   Clear
12:53 PM 80.1 °F 50.0 °F 35% 29.94 in 10.0 mi Variable 3.5 mph - N/A   Clear
1:53 PM 84.0 °F 48.0 °F 28% 29.90 in 10.0 mi Variable 5.8 mph - N/A   Clear
2:53 PM 86.0 °F 42.8 °F 22% 30.04 in 10.0 mi Calm Calm - N/A   Clear
3:53 PM 87.1 °F 39.0 °F 18% 29.84 in 10.0 mi ENE 10.4 mph - N/A   Clear
4:20 PM 79.0 °F 44.1 °F 29% 30.05 in 10.0 mi North 32.2 mph 44.9 mph N/A   Squalls
4:53 PM 80.1 °F 46.0 °F 30% 29.91 in 10.0 mi NNE 21.9 mph 29.9 mph 0.00 in Rain Light Rain
5:53 PM 80.1 °F 43.0 °F 27% 29.90 in 10.0 mi NNE 12.7 mph - 0.00 in   Partly Cloudy
6:53 PM 77.0 °F 48.0 °F 36% 29.90 in 10.0 mi WNW 5.8 mph - 0.00 in   Partly Cloudy
7:53 PM 73.9 °F 48.0 °F 40% 29.91 in 10.0 mi NW 12.7 mph - N/A   Clear
8:53 PM 71.1 °F 48.0 °F 44% 29.93 in 10.0 mi Calm Calm - N/A   Clear
9:53 PM 66.2 °F 50.0 °F 56% 30.08 in 10.0 mi West 8.1 mph - N/A   Clear
10:53 PM 64.9 °F 48.9 °F 56% 29.92 in 10.0 mi West 5.8 mph - N/A   Clear
11:53 PM 63.0 °F 52.0 °F 67% 29.90 in 10.0 mi WSW 5.8 mph - N/A   Clear